World > North America > United States > Iowa

Hourly Menlo, IA Regional Weather

Feedback E-mail the Weather

Quick WX

Menlo, IA Weather Maps

°F °C°F °C
Menlo Weather Map
UTC Time: 6/28/2022, 15:59
Your Time:

Menlo, IA Regional Weather

Expires:202206281600;;334334
ASUS43 KDMX 281506
RWRIA 

WEATHER ROUNDUP FOR IOWA
NATIONAL WEATHER SERVICE DES MOINES IA
1000 AM CDT TUE JUN 28 2022

NOTE: "FAIR" INDICATES FEW OR NO CLOUDS BELOW 12,000 FEET WITH NO
SIGNIFICANT WEATHER AND/OR OBSTRUCTIONS TO VISIBILITY.

* - THESE STATIONS ARE NOT NWS STATIONS...THUS NOT UNDER NWS
QUALITY CONTROL.  THEY ALSO DO NOT REPORT WEATHER SUCH 
AS PRECIPITATION OR FOG.  


IAZ055>058-069>071-079>083-090>094-281600-
   SOUTHWEST IOWA
  
CITY           SKY/WX    TMP DP  RH WIND       PRES   REMARKS
AUDUBON *      CLOUDY    75  54  46 SW14      30.21F                  
CLARINDA *     SUNNY     73  59  60 S8        30.25S                  
COUNCIL BLFS * SUNNY     73  54  49 S13       30.18                   
CRESTON *      SUNNY     73  50  43 SW16      30.24F                  
HARLAN  *      SUNNY     73  55  53 SW15      30.19F                  
LAMONI         SUNNY     75  52  44 S15       30.25F                  
RED OAK *      SUNNY     75  55  50 SW10      30.22F                  
SHENANDOAH *   SUNNY     75  55  50 SW10      30.21F                  
$$
 

SKY/WX - Weather  TMP - Temperature  DP - Dew Point  RH - Humidity
WIND - Wind Direction/Speed PRES - Barometric Pressure VSB - Visibility
WCI - Wind Chill Index E13G22 Wind - East Wind 13 mph/Gusts of 22 mph

Trending Headlines

Menlo Radar Loop



Menlo Quick Facts


National Two Day Weather Forecast


E-mail the Menlo Weather Forecast

Voice your opinion or tell us about page issues...